Multibeam Report for SKQ201505S


Ship Name: Sikuliaq
Chief Scientist: Ashjian, Carin
Woods Hole Oceanographic Institution
Source Organization: UNOLS R2R
Start Date: 2015-03-19
End Date: 2015-04-07


View ISO Metadata

Visit the full NCEI Bathymetry Viewer


Multibeam Bathymetry

Cruise Details

Project: Ice Trials Cruise
Instrument: Kongsberg EM302

Data Quality

Number of Files: 215
Number of Records: 2065227
BATHYMETRY DATA Quantity Percentage
Number of Beams 892178064 100%
Number of Good Beams 787251528 88.24%
Number of Zero Beams 0 0%
Number of Flagged Beams 104926536 11.76%

Navigation Totals

Total Time: 351.1123 hours
Total Track Length: 3084.635 km
Average Speed: 8.785 km/hr (4.7435 knots)

Cruise Bounds

Northern Extent: 60.040474
Southern Extent: 53.89472
Western Extent: -173.65224
Eastern Extent: -166.41809

Limits

Minimum Sonar Depth 0 Maximum Sonar Depth 8.1023
Minimum Altitude 0 Maximum Altitude 1506.99
Minimum Depth 8.1813 Maximum Depth 1637.2206

File Information

Full Resolution Bathymetry as collected (raw): 212

Files File Size Description
0000_20150320_035112_Sikuliaq.all.mb58.gz 541.05MB Kongsberg multibeam vendor format
0001_20150320_055113_Sikuliaq.all.mb58.gz 217.75MB Kongsberg multibeam vendor format
0002_20150320_075114_Sikuliaq.all.mb58.gz 142.35MB Kongsberg multibeam vendor format
0003_20150320_095112_Sikuliaq.all.mb58.gz 220.11MB Kongsberg multibeam vendor format
0004_20150320_115113_Sikuliaq.all.mb58.gz 267.18MB Kongsberg multibeam vendor format
0005_20150320_135113_Sikuliaq.all.mb58.gz 275.12MB Kongsberg multibeam vendor format
0006_20150320_155113_Sikuliaq.all.mb58.gz 275.14MB Kongsberg multibeam vendor format
0007_20150320_175113_Sikuliaq.all.mb58.gz 279.64MB Kongsberg multibeam vendor format
0008_20150320_195113_Sikuliaq.all.mb58.gz 304.88MB Kongsberg multibeam vendor format
0009_20150320_215113_Sikuliaq.all.mb58.gz 384.57MB Kongsberg multibeam vendor format
0010_20150320_235113_Sikuliaq.all.mb58.gz 207.89MB Kongsberg multibeam vendor format
0011_20150321_015113_Sikuliaq.all.mb58.gz 264.15MB Kongsberg multibeam vendor format
0012_20150321_035113_Sikuliaq.all.mb58.gz 355.70MB Kongsberg multibeam vendor format
0013_20150321_055113_Sikuliaq.all.mb58.gz 408.18MB Kongsberg multibeam vendor format
0014_20150321_075113_Sikuliaq.all.mb58.gz 437.11MB Kongsberg multibeam vendor format
0015_20150321_095113_Sikuliaq.all.mb58.gz 448.53MB Kongsberg multibeam vendor format
0016_20150321_115113_Sikuliaq.all.mb58.gz 404.88MB Kongsberg multibeam vendor format
0017_20150321_135113_Sikuliaq.all.mb58.gz 199.52MB Kongsberg multibeam vendor format
0018_20150321_155113_Sikuliaq.all.mb58.gz 307.87MB Kongsberg multibeam vendor format
0019_20150321_175113_Sikuliaq.all.mb58.gz 407.99MB Kongsberg multibeam vendor format
0020_20150321_195114_Sikuliaq.all.mb58.gz 283.35MB Kongsberg multibeam vendor format
0021_20150321_215113_Sikuliaq.all.mb58.gz 214.94MB Kongsberg multibeam vendor format
0022_20150321_235114_Sikuliaq.all.mb58.gz 177.84MB Kongsberg multibeam vendor format
0023_20150322_015114_Sikuliaq.all.mb58.gz 208.22MB Kongsberg multibeam vendor format
0024_20150322_035114_Sikuliaq.all.mb58.gz 296.51MB Kongsberg multibeam vendor format
0025_20150322_055114_Sikuliaq.all.mb58.gz 427.04MB Kongsberg multibeam vendor format
0026_20150322_075114_Sikuliaq.all.mb58.gz 439.55MB Kongsberg multibeam vendor format
0027_20150322_095114_Sikuliaq.all.mb58.gz 259.45MB Kongsberg multibeam vendor format
0028_20150322_115114_Sikuliaq.all.mb58.gz 239.78MB Kongsberg multibeam vendor format
0029_20150322_135114_Sikuliaq.all.mb58.gz 190.38MB Kongsberg multibeam vendor format
0030_20150322_155114_Sikuliaq.all.mb58.gz 341.64MB Kongsberg multibeam vendor format
0031_20150322_175114_Sikuliaq.all.mb58.gz 360.70MB Kongsberg multibeam vendor format
0032_20150322_195114_Sikuliaq.all.mb58.gz 556.94MB Kongsberg multibeam vendor format
0033_20150322_215114_Sikuliaq.all.mb58.gz 568.74MB Kongsberg multibeam vendor format
0034_20150322_235114_Sikuliaq.all.mb58.gz 207.45MB Kongsberg multibeam vendor format
0035_20150323_015114_Sikuliaq.all.mb58.gz 251.75MB Kongsberg multibeam vendor format
0036_20150323_035114_Sikuliaq.all.mb58.gz 188.08MB Kongsberg multibeam vendor format
0037_20150323_055114_Sikuliaq.all.mb58.gz 193.70MB Kongsberg multibeam vendor format
0038_20150323_075115_Sikuliaq.all.mb58.gz 193.57MB Kongsberg multibeam vendor format
0039_20150323_095115_Sikuliaq.all.mb58.gz 136.43MB Kongsberg multibeam vendor format
0040_20150323_115115_Sikuliaq.all.mb58.gz 132.59MB Kongsberg multibeam vendor format
0041_20150323_135115_Sikuliaq.all.mb58.gz 186.27MB Kongsberg multibeam vendor format
0042_20150323_155115_Sikuliaq.all.mb58.gz 260.36MB Kongsberg multibeam vendor format
0043_20150323_175115_Sikuliaq.all.mb58.gz 325.36MB Kongsberg multibeam vendor format
0044_20150323_195115_Sikuliaq.all.mb58.gz 121.98MB Kongsberg multibeam vendor format
0045_20150323_215115_Sikuliaq.all.mb58.gz 189.37MB Kongsberg multibeam vendor format
0046_20150323_235115_Sikuliaq.all.mb58.gz 197.70MB Kongsberg multibeam vendor format
0047_20150324_015115_Sikuliaq.all.mb58.gz 151.42MB Kongsberg multibeam vendor format
0048_20150324_035115_Sikuliaq.all.mb58.gz 196.27MB Kongsberg multibeam vendor format
0049_20150324_055115_Sikuliaq.all.mb58.gz 196.30MB Kongsberg multibeam vendor format
0050_20150324_075115_Sikuliaq.all.mb58.gz 196.16MB Kongsberg multibeam vendor format
0051_20150324_095115_Sikuliaq.all.mb58.gz 142.39MB Kongsberg multibeam vendor format
0052_20150324_115116_Sikuliaq.all.mb58.gz 147.36MB Kongsberg multibeam vendor format
0053_20150324_135115_Sikuliaq.all.mb58.gz 148.24MB Kongsberg multibeam vendor format
0054_20150324_155115_Sikuliaq.all.mb58.gz 196.03MB Kongsberg multibeam vendor format
0055_20150324_175116_Sikuliaq.all.mb58.gz 189.94MB Kongsberg multibeam vendor format
0056_20150324_195116_Sikuliaq.all.mb58.gz 309.48MB Kongsberg multibeam vendor format
0057_20150324_215116_Sikuliaq.all.mb58.gz 86.55MB Kongsberg multibeam vendor format
0058_20150324_235116_Sikuliaq.all.mb58.gz 49.09MB Kongsberg multibeam vendor format
0059_20150325_015116_Sikuliaq.all.mb58.gz 49.09MB Kongsberg multibeam vendor format
0060_20150325_035116_Sikuliaq.all.mb58.gz 49.10MB Kongsberg multibeam vendor format
0061_20150325_055116_Sikuliaq.all.mb58.gz 49.10MB Kongsberg multibeam vendor format
0062_20150325_075116_Sikuliaq.all.mb58.gz 49.10MB Kongsberg multibeam vendor format
0063_20150325_095116_Sikuliaq.all.mb58.gz 49.10MB Kongsberg multibeam vendor format
0064_20150325_115116_Sikuliaq.all.mb58.gz 49.10MB Kongsberg multibeam vendor format
0065_20150325_135116_Sikuliaq.all.mb58.gz 49.10MB Kongsberg multibeam vendor format
0066_20150325_155116_Sikuliaq.all.mb58.gz 49.10MB Kongsberg multibeam vendor format
0067_20150325_175116_Sikuliaq.all.mb58.gz 49.10MB Kongsberg multibeam vendor format
0068_20150325_195116_Sikuliaq.all.mb58.gz 148.09MB Kongsberg multibeam vendor format
0069_20150325_215116_Sikuliaq.all.mb58.gz 169.67MB Kongsberg multibeam vendor format
0070_20150325_235116_Sikuliaq.all.mb58.gz 122.58MB Kongsberg multibeam vendor format
0071_20150326_015117_Sikuliaq.all.mb58.gz 49.09MB Kongsberg multibeam vendor format
0072_20150326_035117_Sikuliaq.all.mb58.gz 249.23MB Kongsberg multibeam vendor format
0073_20150326_055117_Sikuliaq.all.mb58.gz 493.57MB Kongsberg multibeam vendor format
0074_20150326_075117_Sikuliaq.all.mb58.gz 291.70MB Kongsberg multibeam vendor format
0075_20150326_095117_Sikuliaq.all.mb58.gz 195.79MB Kongsberg multibeam vendor format
0076_20150326_115117_Sikuliaq.all.mb58.gz 141.87MB Kongsberg multibeam vendor format
0077_20150326_135117_Sikuliaq.all.mb58.gz 135.53MB Kongsberg multibeam vendor format
0078_20150326_155117_Sikuliaq.all.mb58.gz 173.15MB Kongsberg multibeam vendor format
0079_20150326_175117_Sikuliaq.all.mb58.gz 191.81MB Kongsberg multibeam vendor format
0080_20150326_195118_Sikuliaq.all.mb58.gz 263.00MB Kongsberg multibeam vendor format
0081_20150326_215117_Sikuliaq.all.mb58.gz 242.27MB Kongsberg multibeam vendor format
0082_20150326_235118_Sikuliaq.all.mb58.gz 185.20MB Kongsberg multibeam vendor format
0083_20150327_015118_Sikuliaq.all.mb58.gz 254.37MB Kongsberg multibeam vendor format
0084_20150327_035118_Sikuliaq.all.mb58.gz 383.95MB Kongsberg multibeam vendor format
0085_20150327_055118_Sikuliaq.all.mb58.gz 391.91MB Kongsberg multibeam vendor format
0086_20150327_075118_Sikuliaq.all.mb58.gz 289.00MB Kongsberg multibeam vendor format
0087_20150327_095118_Sikuliaq.all.mb58.gz 195.83MB Kongsberg multibeam vendor format
0088_20150327_115118_Sikuliaq.all.mb58.gz 195.70MB Kongsberg multibeam vendor format
0089_20150327_135118_Sikuliaq.all.mb58.gz 195.74MB Kongsberg multibeam vendor format
0090_20150327_155118_Sikuliaq.all.mb58.gz 179.77MB Kongsberg multibeam vendor format
0091_20150327_175118_Sikuliaq.all.mb58.gz 30.43MB Kongsberg multibeam vendor format
0092_20150327_233929_Sikuliaq.all.mb58.gz 191.07MB Kongsberg multibeam vendor format
0093_20150328_013930_Sikuliaq.all.mb58.gz 306.77MB Kongsberg multibeam vendor format
0094_20150328_033930_Sikuliaq.all.mb58.gz 359.64MB Kongsberg multibeam vendor format
0095_20150328_053930_Sikuliaq.all.mb58.gz 218.11MB Kongsberg multibeam vendor format
0096_20150328_073930_Sikuliaq.all.mb58.gz 191.56MB Kongsberg multibeam vendor format
0097_20150328_093930_Sikuliaq.all.mb58.gz 195.04MB Kongsberg multibeam vendor format
0098_20150328_113930_Sikuliaq.all.mb58.gz 133.82MB Kongsberg multibeam vendor format
0099_20150328_133930_Sikuliaq.all.mb58.gz 197.60MB Kongsberg multibeam vendor format
0100_20150328_153930_Sikuliaq.all.mb58.gz 181.31MB Kongsberg multibeam vendor format
0101_20150328_173930_Sikuliaq.all.mb58.gz 92.03MB Kongsberg multibeam vendor format
0102_20150328_234441_Sikuliaq.all.mb58.gz 173.21MB Kongsberg multibeam vendor format
0103_20150329_014430_Sikuliaq.all.mb58.gz 229.35MB Kongsberg multibeam vendor format
0104_20150329_034430_Sikuliaq.all.mb58.gz 271.86MB Kongsberg multibeam vendor format
0105_20150329_054430_Sikuliaq.all.mb58.gz 280.58MB Kongsberg multibeam vendor format
0106_20150329_074430_Sikuliaq.all.mb58.gz 307.33MB Kongsberg multibeam vendor format
0107_20150329_094430_Sikuliaq.all.mb58.gz 207.91MB Kongsberg multibeam vendor format
0108_20150329_114430_Sikuliaq.all.mb58.gz 49.09MB Kongsberg multibeam vendor format
0109_20150329_134430_Sikuliaq.all.mb58.gz 49.09MB Kongsberg multibeam vendor format
0110_20150329_154430_Sikuliaq.all.mb58.gz 64.83MB Kongsberg multibeam vendor format
0111_20150329_174430_Sikuliaq.all.mb58.gz 278.15MB Kongsberg multibeam vendor format
0112_20150329_194430_Sikuliaq.all.mb58.gz 304.30MB Kongsberg multibeam vendor format
0113_20150329_214430_Sikuliaq.all.mb58.gz 49.09MB Kongsberg multibeam vendor format
0114_20150329_234430_Sikuliaq.all.mb58.gz 49.09MB Kongsberg multibeam vendor format
0115_20150330_014430_Sikuliaq.all.mb58.gz 14.03MB Kongsberg multibeam vendor format
0116_20150330_022000_Sikuliaq.all.mb58.gz 430.23MB Kongsberg multibeam vendor format
0117_20150330_042001_Sikuliaq.all.mb58.gz 435.08MB Kongsberg multibeam vendor format
0118_20150330_062001_Sikuliaq.all.mb58.gz 249.52MB Kongsberg multibeam vendor format
0119_20150330_082001_Sikuliaq.all.mb58.gz 194.41MB Kongsberg multibeam vendor format
0120_20150330_102001_Sikuliaq.all.mb58.gz 194.25MB Kongsberg multibeam vendor format
0121_20150330_122001_Sikuliaq.all.mb58.gz 193.58MB Kongsberg multibeam vendor format
0122_20150330_142001_Sikuliaq.all.mb58.gz 194.52MB Kongsberg multibeam vendor format
0123_20150330_162001_Sikuliaq.all.mb58.gz 303.48MB Kongsberg multibeam vendor format
0124_20150330_182001_Sikuliaq.all.mb58.gz 187.22MB Kongsberg multibeam vendor format
0125_20150330_202001_Sikuliaq.all.mb58.gz 49.09MB Kongsberg multibeam vendor format
0126_20150330_222001_Sikuliaq.all.mb58.gz 49.09MB Kongsberg multibeam vendor format
0127_20150331_002001_Sikuliaq.all.mb58.gz 43.39MB Kongsberg multibeam vendor format
0128_20150331_020622_Sikuliaq.all.mb58.gz 82.1KB Kongsberg multibeam vendor format
0129_20150331_020710_Sikuliaq.all.mb58.gz 1.34MB Kongsberg multibeam vendor format
0130_20150331_042812_Sikuliaq.all.mb58.gz 223.54MB Kongsberg multibeam vendor format
0131_20150331_062812_Sikuliaq.all.mb58.gz 372.40MB Kongsberg multibeam vendor format
0132_20150331_082812_Sikuliaq.all.mb58.gz 500.32MB Kongsberg multibeam vendor format
0133_20150331_102812_Sikuliaq.all.mb58.gz 286.77MB Kongsberg multibeam vendor format
0134_20150331_122813_Sikuliaq.all.mb58.gz 442.78MB Kongsberg multibeam vendor format
0135_20150331_142813_Sikuliaq.all.mb58.gz 229.24MB Kongsberg multibeam vendor format
0136_20150331_162813_Sikuliaq.all.mb58.gz 225.19MB Kongsberg multibeam vendor format
0137_20150331_182813_Sikuliaq.all.mb58.gz 271.74MB Kongsberg multibeam vendor format
0138_20150331_202813_Sikuliaq.all.mb58.gz 338.65MB Kongsberg multibeam vendor format
0139_20150331_222813_Sikuliaq.all.mb58.gz 330.91MB Kongsberg multibeam vendor format
0140_20150401_002813_Sikuliaq.all.mb58.gz 248.58MB Kongsberg multibeam vendor format
0141_20150401_022813_Sikuliaq.all.mb58.gz 147.68MB Kongsberg multibeam vendor format
0142_20150401_042813_Sikuliaq.all.mb58.gz 400.10MB Kongsberg multibeam vendor format
0143_20150401_062813_Sikuliaq.all.mb58.gz 403.69MB Kongsberg multibeam vendor format
0144_20150401_082813_Sikuliaq.all.mb58.gz 161.50MB Kongsberg multibeam vendor format
0145_20150401_102813_Sikuliaq.all.mb58.gz 49.09MB Kongsberg multibeam vendor format
0146_20150401_122813_Sikuliaq.all.mb58.gz 49.09MB Kongsberg multibeam vendor format
0147_20150401_142813_Sikuliaq.all.mb58.gz 49.09MB Kongsberg multibeam vendor format
0148_20150401_162813_Sikuliaq.all.mb58.gz 49.10MB Kongsberg multibeam vendor format
0149_20150401_182813_Sikuliaq.all.mb58.gz 49.09MB Kongsberg multibeam vendor format
0150_20150401_202813_Sikuliaq.all.mb58.gz 49.10MB Kongsberg multibeam vendor format
0151_20150401_222814_Sikuliaq.all.mb58.gz 229.90MB Kongsberg multibeam vendor format
0152_20150402_002814_Sikuliaq.all.mb58.gz 267.74MB Kongsberg multibeam vendor format
0153_20150402_022814_Sikuliaq.all.mb58.gz 389.54MB Kongsberg multibeam vendor format
0154_20150402_042814_Sikuliaq.all.mb58.gz 118.19MB Kongsberg multibeam vendor format
0155_20150402_062814_Sikuliaq.all.mb58.gz 279.28MB Kongsberg multibeam vendor format
0156_20150402_082814_Sikuliaq.all.mb58.gz 332.73MB Kongsberg multibeam vendor format
0157_20150402_102814_Sikuliaq.all.mb58.gz 209.11MB Kongsberg multibeam vendor format
0158_20150402_122814_Sikuliaq.all.mb58.gz 210.97MB Kongsberg multibeam vendor format
0159_20150402_142814_Sikuliaq.all.mb58.gz 191.70MB Kongsberg multibeam vendor format
0160_20150402_162814_Sikuliaq.all.mb58.gz 195.51MB Kongsberg multibeam vendor format
0161_20150402_182814_Sikuliaq.all.mb58.gz 277.43MB Kongsberg multibeam vendor format
0162_20150402_202814_Sikuliaq.all.mb58.gz 322.29MB Kongsberg multibeam vendor format
0163_20150402_222815_Sikuliaq.all.mb58.gz 337.63MB Kongsberg multibeam vendor format
0164_20150403_002814_Sikuliaq.all.mb58.gz 323.27MB Kongsberg multibeam vendor format
0165_20150403_022815_Sikuliaq.all.mb58.gz 190.60MB Kongsberg multibeam vendor format
0166_20150403_042815_Sikuliaq.all.mb58.gz 375.30MB Kongsberg multibeam vendor format
0167_20150403_062815_Sikuliaq.all.mb58.gz 286.03MB Kongsberg multibeam vendor format
0168_20150403_082815_Sikuliaq.all.mb58.gz 277.65MB Kongsberg multibeam vendor format
0169_20150403_102815_Sikuliaq.all.mb58.gz 282.55MB Kongsberg multibeam vendor format
0170_20150403_122815_Sikuliaq.all.mb58.gz 269.97MB Kongsberg multibeam vendor format
0171_20150403_142815_Sikuliaq.all.mb58.gz 53.71MB Kongsberg multibeam vendor format
0172_20150403_162815_Sikuliaq.all.mb58.gz 165.73MB Kongsberg multibeam vendor format
0173_20150403_182815_Sikuliaq.all.mb58.gz 182.33MB Kongsberg multibeam vendor format
0174_20150403_202815_Sikuliaq.all.mb58.gz 192.65MB Kongsberg multibeam vendor format
0175_20150403_222815_Sikuliaq.all.mb58.gz 266.44MB Kongsberg multibeam vendor format
0176_20150404_002815_Sikuliaq.all.mb58.gz 282.21MB Kongsberg multibeam vendor format
0177_20150404_022815_Sikuliaq.all.mb58.gz 410.55MB Kongsberg multibeam vendor format
0178_20150404_042815_Sikuliaq.all.mb58.gz 205.91MB Kongsberg multibeam vendor format
0179_20150404_062815_Sikuliaq.all.mb58.gz 80.75MB Kongsberg multibeam vendor format
0180_20150404_082816_Sikuliaq.all.mb58.gz 193.45MB Kongsberg multibeam vendor format
0181_20150404_102815_Sikuliaq.all.mb58.gz 179.22MB Kongsberg multibeam vendor format
0182_20150404_122815_Sikuliaq.all.mb58.gz 131.60MB Kongsberg multibeam vendor format
0183_20150404_142815_Sikuliaq.all.mb58.gz 156.35MB Kongsberg multibeam vendor format
0184_20150404_162816_Sikuliaq.all.mb58.gz 112.97MB Kongsberg multibeam vendor format
0185_20150404_232512_Sikuliaq.all.mb58.gz 225.45MB Kongsberg multibeam vendor format
0186_20150405_012507_Sikuliaq.all.mb58.gz 207.07MB Kongsberg multibeam vendor format
0187_20150405_032508_Sikuliaq.all.mb58.gz 365.79MB Kongsberg multibeam vendor format
0188_20150405_052508_Sikuliaq.all.mb58.gz 434.34MB Kongsberg multibeam vendor format
0189_20150405_072508_Sikuliaq.all.mb58.gz 395.03MB Kongsberg multibeam vendor format
0190_20150405_092508_Sikuliaq.all.mb58.gz 292.97MB Kongsberg multibeam vendor format
0191_20150405_112508_Sikuliaq.all.mb58.gz 244.30MB Kongsberg multibeam vendor format
0192_20150405_132508_Sikuliaq.all.mb58.gz 262.37MB Kongsberg multibeam vendor format
0193_20150405_152508_Sikuliaq.all.mb58.gz 103.85MB Kongsberg multibeam vendor format
0194_20150405_172508_Sikuliaq.all.mb58.gz 214.73MB Kongsberg multibeam vendor format
0195_20150405_192508_Sikuliaq.all.mb58.gz 436.34MB Kongsberg multibeam vendor format
0196_20150405_212508_Sikuliaq.all.mb58.gz 511.74MB Kongsberg multibeam vendor format
0197_20150405_232508_Sikuliaq.all.mb58.gz 619.24MB Kongsberg multibeam vendor format
0198_20150406_012508_Sikuliaq.all.mb58.gz 713.90MB Kongsberg multibeam vendor format
0199_20150406_032508_Sikuliaq.all.mb58.gz 788.81MB Kongsberg multibeam vendor format
0200_20150406_052508_Sikuliaq.all.mb58.gz 787.42MB Kongsberg multibeam vendor format
0201_20150406_072508_Sikuliaq.all.mb58.gz 762.53MB Kongsberg multibeam vendor format
0202_20150406_092508_Sikuliaq.all.mb58.gz 771.00MB Kongsberg multibeam vendor format
0203_20150406_112509_Sikuliaq.all.mb58.gz 685.09MB Kongsberg multibeam vendor format
0204_20150406_132509_Sikuliaq.all.mb58.gz 527.88MB Kongsberg multibeam vendor format
0205_20150406_152509_Sikuliaq.all.mb58.gz 462.11MB Kongsberg multibeam vendor format
0206_20150406_172509_Sikuliaq.all.mb58.gz 460.85MB Kongsberg multibeam vendor format
0207_20150406_192509_Sikuliaq.all.mb58.gz 445.04MB Kongsberg multibeam vendor format
0208_20150406_212509_Sikuliaq.all.mb58.gz 377.00MB Kongsberg multibeam vendor format
0209_20150406_232509_Sikuliaq.all.mb58.gz 316.41MB Kongsberg multibeam vendor format
0210_20150407_012509_Sikuliaq.all.mb58.gz 278.17MB Kongsberg multibeam vendor format
0211_20150407_032510_Sikuliaq.all.mb58.gz 267.30MB Kongsberg multibeam vendor format

Metadata Files: 2

Files File Size Description
SKQ201505S_Multibeam.xml NGDC created ISO metadata
em302_bag_info.tar.gz 24.9KB Additional cruise information

Water Column Sonar Data

Water Column Sonar Data Available: WCSD Map Viewer